Location: Daerah Kuala Lumpur
(3.1167°N, 101.6833°E)
Time: 19:34:17
(UTC+00:00)

Landsat 7 - Pass Details

Date: 05 August 2024
Orbit: 689 x 691 km, 97.9° (Epoch: 14 September)

Event Time Altitude Azimuth Distance (km) Brightness Sun altitude
Rises 12:33:58 0° 177° (S) 3,060 6.9 -16.9°
Reaches altitude 10° 12:36:15 10° 181° (S) 2,143 6.1 -17.4°
Maximum altitude 12:40:50 55° 258° (WSW) 829 4.4 -18.5°
Drops below altitude 10° 12:45:25 10° 336° (NNW) 2,137 6.9 -19.6°
Sets 12:47:41 0° 341° (NNW) 3,052 7.7 -20.1°
